カタログに戻る

COSMOS 1275 DEB

運用中PO
NORAD 13468·DEBRIS·🇷🇺 Russia

打ち上げ Jun 4, 1981 から Plesetsk Cosmodrome

Loading…

次のパス (今後24時間)

TLE

最新Source: Space-Track

元期: Sep 14, 2026, 11:29 UTC

1 13468U 81053FQ  26257.47878825  .00000910  00000-0  67558-3 0  9994
2 13468  82.6999  78.0907 0061757 294.6944  93.5343 13.93305280229501

AllMySatでCOSMOS 1275 DEBをリアルタイム追跡

Download on the App Store